Simultaneous Nadir Overpasses (SNOs) Predictions

Prediction of SNOs between GOES-17 and METOP-B Satellite Orbit:

Table of predicted SNOs for the next 14.0 days since TLE Epoch: 6/29/2020
Index Date Time (GOES-17) GOES-17 Lat,Lon METOP-B Lat,Lon Distance(km) Time Diff (sec)
1 06/30/2020 06:52:04 -0.01,-137.20 -0.79,-140.64 392.86 80
2 07/01/2020 06:34:04 -0.02,-137.20 0.34,-135.65 176.64 80
3 07/02/2020 18:50:16 0.02,-137.20 0.68,-140.21 342.95 80
4 07/03/2020 18:32:15 0.02,-137.20 -0.39,-135.21 226.10 80
5 07/05/2020 06:51:16 -0.02,-137.19 -0.58,-139.81 298.32 80
6 07/06/2020 06:27:55 -0.02,-137.18 0.49,-134.81 270.27 80
7 07/07/2020 18:46:46 0.01,-137.18 0.53,-139.37 250.44 80
8 07/08/2020 18:28:47 0.01,-137.17 -0.60,-134.38 318.10 80
9 07/10/2020 06:47:46 -0.01,-137.16 -0.43,-138.97 206.62 80
10 07/11/2020 06:24:27 -0.01,-137.15 0.70,-133.98 361.72 80
11 07/12/2020 18:43:18 0.01,-137.14 0.32,-138.54 159.54 80
